period_start,C,m1,H,J0,J1,J2,J3,J4,J5,JA,JB,JC,JD,JJ,JK,JN,#
2016-01-04 00:02:30,0.02,4.50,0.00,20.06,23.11,26.86,14.49,52.71,1002.91,2049.68,2143.93,2154.49,2351.01,599.84,593.77,43.26,0000 0000 0000 0000 000000
2016-01-04 00:07:31,0.02,4.50,0.00,20.07,23.12,26.89,14.58,52.63,1002.91,2049.42,2143.12,2154.02,2350.78,599.73,593.63,43.31,0000 0000 0000 0000 000000
2016-01-04 00:12:33,0.02,4.50,0.00,20.07,23.14,26.91,14.55,52.50,1002.86,2049.30,2142.87,2153.99,2350.11,600.20,594.08,43.36,0000 0000 0000 0000 000000
2016-01-04 00:17:34,0.00,4.50,0.00,20.09,23.16,26.92,14.52,52.50,1002.93,2049.11,2142.36,2153.97,2350.03,600.04,593.94,43.41,0000 0000 0000 0000 000000
2016-01-04 00:22:35,0.03,4.50,0.00,20.11,23.18,26.93,14.56,52.49,1002.95,2049.02,2142.00,2153.31,2349.98,600.27,593.91,43.46,0000 0000 0000 0000 000000
2016-01-04 00:27:36,0.04,4.50,0.00,20.16,23.20,26.96,14.49,52.58,1002.95,2049.02,2141.51,2153.00,2349.36,599.78,593.55,43.52,0000 0000 0000 0000 000000
2016-01-04 00:32:37,0.02,4.50,0.00,20.16,23.22,26.99,14.57,52.69,1002.96,2049.01,2141.02,2152.84,2349.01,600.12,593.89,43.57,0000 0000 0000 0000 000000
2016-01-04 00:37:38,0.07,4.51,0.00,20.19,23.24,26.99,14.59,52.69,1003.01,2049.00,2140.54,2152.08,2348.64,600.16,593.82,43.62,0000 0000 0000 0000 000000
2016-01-04 00:42:39,0.01,4.51,0.00,20.20,23.26,27.02,14.55,52.67,1003.25,2049.00,2140.01,2151.98,2348.03,600.11,594.01,43.67,0000 0000 0000 0000 000000
2016-01-04 00:47:41,0.06,4.51,0.00,20.23,23.28,27.05,14.58,52.74,1003.43,2049.00,2139.57,2151.44,2347.89,600.33,594.15,43.72,0000 0000 0000 0000 000000
2016-01-04 00:52:42,0.04,4.51,0.00,20.25,23.30,27.05,14.60,52.73,1003.43,2049.00,2139.00,2151.01,2347.10,600.21,594.04,43.77,0000 0000 0000 0000 000000
2016-01-04 00:57:43,0.07,4.52,0.00,20.24,23.32,27.08,14.53,52.65,1003.45,2048.96,2138.31,2150.51,2346.81,599.86,593.64,43.82,0000 0000 0000 0000 000000
2016-01-04 01:02:44,0.02,4.52,0.00,20.24,23.34,27.12,14.61,52.62,1003.54,2048.93,2137.99,2150.02,2346.06,599.95,593.86,43.87,0000 0000 0000 0000 000000
2016-01-04 01:07:46,-0.01,4.52,0.00,20.29,23.36,27.11,14.60,52.69,1003.88,2048.61,2137.38,2149.97,2345.96,600.43,594.40,43.92,0000 0000 0000 0000 000000
2016-01-04 01:12:47,0.02,4.52,0.00,20.31,23.38,27.11,14.57,52.60,1003.92,2048.22,2136.99,2149.32,2345.29,600.26,594.23,43.97,0000 0000 0000 0000 000000
2016-01-04 01:17:48,0.02,4.52,0.00,20.33,23.40,27.16,14.58,52.67,1003.92,2048.07,2136.36,2149.01,2345.00,600.14,594.18,44.02,0000 0000 0000 0000 000000
2016-01-04 01:22:49,0.03,4.52,0.00,20.34,23.42,27.15,14.57,52.67,1003.92,2048.03,2135.99,2148.85,2344.53,600.11,594.06,44.07,0000 0000 0000 0000 000000
2016-01-04 01:27:51,0.06,4.53,0.00,20.35,23.44,27.19,14.53,52.65,1003.95,2048.01,2135.38,2148.10,2344.00,600.02,593.91,44.12,0000 0000 0000 0000 000000
2016-01-04 01:32:52,0.02,4.53,0.00,20.37,23.46,27.22,14.58,52.70,1004.08,2048.00,2134.99,2147.98,2343.67,600.32,594.32,44.17,0000 0000 0000 0000 000000
2016-01-04 01:37:53,0.06,4.53,0.00,20.37,23.48,27.23,14.56,52.58,1004.40,2047.99,2134.36,2147.58,2343.05,600.01,594.19,44.22,0000 0000 0000 0000 000000
2016-01-04 01:42:55,0.01,4.53,0.00,20.38,23.50,27.21,14.51,52.51,1004.40,2047.98,2134.01,2147.03,2342.97,599.88,594.06,44.27,0000 0000 0000 0000 000000
2016-01-04 01:47:56,0.04,4.53,0.00,20.39,23.52,27.25,14.61,52.56,1004.41,2047.97,2133.69,2146.99,2342.37,600.04,594.22,44.32,0000 0000 0000 0000 000000
2016-01-04 01:52:57,0.05,4.54,0.00,20.40,23.54,27.29,14.53,52.35,1004.42,2047.95,2133.02,2146.49,2342.00,600.34,594.28,44.38,0000 0000 0000 0000 000000
2016-01-04 01:57:58,0.02,4.54,0.00,20.42,23.56,27.28,14.57,52.38,1004.69,2047.88,2132.74,2146.02,2341.71,600.02,594.27,44.43,0000 0000 0000 0000 000000
2016-01-04 02:03:00,0.00,4.54,0.00,20.43,23.57,27.35,14.53,52.29,1004.89,2047.56,2132.04,2145.97,2341.05,599.92,594.31,44.48,0000 0000 0000 0000 000000
2016-01-04 02:08:01,0.02,4.54,0.00,20.45,23.60,27.35,14.55,52.39,1004.90,2047.26,2131.77,2145.38,2340.93,599.60,593.88,44.53,0000 0000 0000 0000 000000
2016-01-04 02:13:03,0.02,4.54,0.00,20.48,23.61,27.36,14.57,52.39,1004.90,2047.08,2131.04,2145.01,2340.17,600.11,594.32,44.58,0000 0000 0000 0000 000000
2016-01-04 02:18:04,0.03,4.54,0.00,20.51,23.62,27.36,14.56,52.41,1004.91,2047.02,2130.58,2144.79,2339.99,599.79,593.97,44.63,0000 0000 0000 0000 000000
2016-01-04 02:23:05,0.06,4.54,0.00,20.53,23.65,27.38,14.53,52.27,1004.92,2047.00,2130.01,2144.10,2339.44,600.08,594.13,44.68,0000 0000 0000 0000 000000
2016-01-04 02:28:07,0.01,4.55,0.00,20.53,23.66,27.40,14.56,52.35,1005.05,2047.00,2129.83,2144.00,2339.01,599.96,594.11,44.73,0000 0000 0000 0000 000000
2016-01-04 02:33:08,0.04,4.55,0.00,20.54,23.68,27.44,14.51,52.10,1005.17,2047.00,2129.09,2143.82,2338.80,600.02,594.34,44.78,0000 0000 0000 0000 000000
2016-01-04 02:38:09,0.05,4.55,0.00,20.56,23.70,27.44,14.57,52.25,1005.38,2047.00,2128.88,2143.07,2338.08,599.95,594.27,44.83,0000 0000 0000 0000 000000
2016-01-04 02:43:10,0.03,4.55,0.00,20.60,23.72,27.47,14.49,52.27,1005.39,2047.00,2128.10,2142.98,2337.96,599.79,594.05,44.88,0000 0000 0000 0000 000000
2016-01-04 02:48:12,0.05,4.55,0.00,20.62,23.73,27.50,14.53,52.34,1005.43,2047.00,2127.97,2142.49,2337.24,599.89,594.14,44.93,0000 0000 0000 0000 000000
2016-01-04 02:53:13,0.04,4.56,0.00,20.61,23.75,27.50,14.52,52.42,1005.69,2047.00,2127.27,2142.04,2337.00,599.78,594.28,44.98,0000 0000 0000 0000 000000
2016-01-04 02:58:14,0.01,4.56,0.00,20.63,23.77,27.54,14.53,52.33,1005.78,2047.00,2126.97,2141.98,2336.76,599.78,594.28,45.03,0000 0000 0000 0000 000000
2016-01-04 03:03:15,0.08,4.56,0.00,20.67,23.78,27.54,14.62,52.38,1005.87,2046.99,2126.22,2141.47,2336.05,599.92,594.38,45.08,0000 0000 0000 0000 000000
2016-01-04 03:08:16,0.02,4.56,0.00,20.68,23.80,27.54,14.59,52.27,1005.87,2046.99,2125.90,2141.01,2335.83,600.37,594.84,45.13,0000 0000 0000 0000 000000
2016-01-04 03:13:17,0.05,4.57,0.00,20.69,23.82,27.56,14.49,52.17,1005.89,2046.99,2125.12,2140.90,2335.08,599.63,593.97,45.18,0000 0000 0000 0000 000000
2016-01-04 03:18:19,0.04,4.57,0.00,20.70,23.83,27.56,14.51,52.27,1005.95,2046.96,2124.96,2140.16,2335.00,600.04,594.39,45.23,0000 0000 0000 0000 000000
2016-01-04 03:23:20,0.03,4.57,0.00,20.72,23.85,27.62,14.58,52.33,1006.23,2046.89,2124.18,2140.00,2334.52,599.99,594.63,45.28,0000 0000 0000 0000 000000
2016-01-04 03:28:21,-0.02,4.57,0.00,20.74,23.86,27.63,14.56,52.27,1006.36,2046.46,2123.95,2139.76,2334.01,599.76,594.33,45.33,0000 0000 0000 0000 000000
2016-01-04 03:33:23,0.04,4.57,0.00,20.75,23.88,27.65,14.50,52.27,1006.36,2046.31,2123.18,2139.09,2333.79,599.57,594.11,45.39,0000 0000 0000 0000 000000
2016-01-04 03:38:24,0.00,4.57,0.00,20.77,23.90,27.63,14.66,52.31,1006.49,2046.07,2122.90,2138.99,2333.09,600.32,594.89,45.44,0000 0000 0000 0000 000000
2016-01-04 03:43:25,0.05,4.57,0.00,20.78,23.91,27.65,14.58,52.28,1006.83,2046.02,2122.10,2138.58,2333.00,600.02,594.91,45.49,0000 0000 0000 0000 000000
2016-01-04 03:48:27,0.03,4.58,0.00,20.79,23.92,27.66,14.56,52.29,1006.85,2046.06,2121.93,2138.03,2332.65,600.20,594.94,45.54,0000 0000 0000 0000 000000
2016-01-04 03:53:28,0.03,4.58,0.00,20.82,23.95,27.72,14.58,52.33,1006.87,2046.01,2121.17,2137.99,2332.02,599.94,594.66,45.59,0000 0000 0000 0000 000000
2016-01-04 03:58:30,0.01,4.58,0.00,20.84,23.96,27.72,14.47,52.16,1007.00,2046.00,2120.99,2137.76,2331.97,599.68,594.40,45.64,0000 0000 0000 0000 000000
2016-01-04 04:03:31,0.08,4.58,0.00,20.87,23.97,27.73,14.56,52.32,1007.14,2046.00,2120.45,2137.12,2331.39,599.97,594.73,45.69,0000 0000 0000 0000 000000
2016-01-04 04:08:32,0.01,4.58,0.00,20.87,24.00,27.75,14.47,52.17,1007.33,2046.00,2119.95,2136.99,2331.01,599.70,594.56,45.74,0000 0000 0000 0000 000000
2016-01-04 04:13:33,0.04,4.59,0.00,20.89,24.01,27.76,14.55,52.32,1007.35,2046.00,2119.28,2136.74,2330.86,600.07,594.97,45.79,0000 0000 0000 0000 000000
2016-01-04 04:18:35,0.05,4.59,0.00,20.91,24.02,27.77,14.55,52.24,1007.54,2046.00,2119.00,2136.07,2330.10,599.74,594.84,45.84,0000 0000 0000 0000 000000
2016-01-04 04:23:36,0.03,4.59,0.00,20.93,24.04,27.80,14.57,52.35,1007.79,2045.99,2118.41,2135.97,2329.95,599.86,594.86,45.89,0000 0000 0000 0000 000000
2016-01-04 04:28:37,0.05,4.59,0.00,20.96,24.06,27.82,14.54,52.35,1007.83,2045.98,2118.00,2135.54,2329.36,600.03,595.00,45.94,0000 0000 0000 0000 000000
2016-01-04 04:33:38,0.02,4.59,0.00,20.96,24.07,27.83,14.53,52.41,1007.83,2045.99,2117.80,2135.04,2329.01,599.73,594.67,45.99,0000 0000 0000 0000 000000
2016-01-04 04:38:39,0.03,4.60,0.00,20.98,24.09,27.85,14.60,52.15,1007.84,2045.96,2117.08,2134.94,2328.70,600.39,595.33,46.04,0000 0000 0000 0000 000000
2016-01-04 04:43:40,0.05,4.60,0.00,21.02,24.11,27.85,14.47,52.22,1007.84,2045.91,2116.82,2134.30,2328.05,599.92,594.76,46.09,0000 0000 0000 0000 000000
2016-01-04 04:48:42,0.00,4.60,0.00,21.05,24.12,27.89,14.57,52.27,1008.12,2045.72,2116.05,2134.00,2327.94,600.21,595.15,46.14,0000 0000 0000 0000 000000
2016-01-04 04:53:43,0.02,4.60,0.00,21.06,24.14,27.87,14.50,52.26,1008.31,2045.41,2115.62,2133.79,2327.20,599.70,594.96,46.19,0000 0000 0000 0000 000000
2016-01-04 04:58:44,0.01,4.60,0.00,21.08,24.16,27.88,14.56,52.32,1008.35,2045.12,2115.02,2133.10,2326.98,599.91,594.93,46.24,0000 0000 0000 0000 000000
2016-01-04 05:03:46,0.05,4.60,0.00,21.08,24.17,27.91,14.53,52.30,1008.49,2045.08,2114.68,2133.00,2326.45,600.00,595.12,46.30,0000 0000 0000 0000 000000
2016-01-04 05:08:47,0.04,4.61,0.00,21.08,24.20,27.91,14.56,52.34,1008.74,2045.04,2114.01,2132.57,2326.00,599.81,595.11,46.35,0000 0000 0000 0000 000000
2016-01-04 05:13:48,0.03,4.61,0.00,21.09,24.21,27.95,14.53,52.28,1008.80,2045.01,2113.73,2132.04,2325.78,599.72,594.99,46.40,0000 0000 0000 0000 000000
2016-01-04 05:18:49,0.03,4.61,0.00,21.11,24.22,27.97,14.61,52.38,1008.82,2045.00,2113.04,2131.99,2325.06,600.13,595.38,46.45,0000 0000 0000 0000 000000
2016-01-04 05:23:50,0.03,4.61,0.00,21.12,24.24,27.98,14.65,52.34,1008.83,2045.00,2112.88,2131.57,2324.98,600.24,595.56,46.50,0000 0000 0000 0000 000000
2016-01-04 05:28:51,0.07,4.61,0.00,21.13,24.25,27.97,14.52,52.27,1009.08,2045.00,2112.10,2131.03,2324.41,599.92,595.36,46.55,0000 0000 0000 0000 000000
2016-01-04 05:33:52,0.00,4.62,0.00,21.14,24.27,28.02,14.58,52.42,1009.20,2044.99,2111.88,2130.99,2324.01,600.00,595.41,46.60,0000 0000 0000 0000 000000
2016-01-04 05:38:54,0.07,4.62,0.00,21.13,24.27,28.01,14.62,52.48,1009.26,2044.98,2111.10,2130.58,2323.75,600.42,595.73,46.65,0000 0000 0000 0000 000000
2016-01-04 05:43:55,0.02,4.62,0.00,21.15,24.29,28.06,14.55,52.50,1009.29,2044.97,2110.89,2130.03,2323.04,599.95,595.34,46.70,0000 0000 0000 0000 000000
2016-01-04 05:48:56,0.06,4.62,0.00,21.15,24.30,28.07,14.56,52.42,1009.31,2044.96,2110.06,2129.71,2322.62,599.98,595.44,46.75,0000 0000 0000 0000 000000
2016-01-04 05:53:57,0.05,4.63,0.00,21.17,24.31,28.09,14.60,52.49,1009.38,2044.88,2109.31,2129.04,2322.02,600.19,595.71,46.80,0000 0000 0000 0000 000000
2016-01-04 05:58:59,0.02,4.63,0.00,21.17,24.32,28.08,14.51,52.39,1009.73,2044.79,2108.79,2128.92,2321.59,599.92,595.65,46.85,0000 0000 0000 0000 000000
2016-01-04 06:04:00,0.03,4.63,0.00,21.18,24.32,28.13,14.52,52.42,1009.78,2044.39,2108.04,2128.12,2321.01,599.85,595.66,46.90,0000 0000 0000 0000 000000
2016-01-04 06:09:01,0.04,4.63,0.00,21.19,24.34,28.16,14.64,52.49,1009.91,2044.15,2107.25,2127.89,2320.36,599.85,595.61,46.95,0000 0000 0000 0000 000000
2016-01-04 06:14:02,0.06,4.63,0.00,21.20,24.35,28.13,14.59,52.43,1010.24,2044.06,2106.52,2127.16,2319.97,600.13,596.05,47.00,0000 0000 0000 0000 000000
2016-01-04 06:19:03,0.03,4.64,0.00,21.21,24.35,28.17,14.56,52.14,1010.28,2044.03,2105.91,2126.99,2319.28,599.87,595.84,47.05,0000 0000 0000 0000 000000
2016-01-04 06:24:04,0.06,4.64,0.00,21.24,24.37,28.17,14.58,52.17,1010.34,2044.01,2105.10,2126.49,2319.00,600.21,596.02,47.10,0000 0000 0000 0000 000000
2016-01-04 06:29:06,0.06,4.64,0.00,21.24,24.37,28.21,14.60,52.24,1010.68,2044.02,2104.31,2126.00,2318.44,599.77,595.81,47.15,0000 0000 0000 0000 000000
2016-01-04 06:34:07,0.11,4.65,0.00,21.25,24.38,28.18,14.53,52.27,1010.76,2044.02,2102.95,2125.25,2317.54,600.02,596.10,47.21,0000 0000 0000 0000 000000
2016-01-04 06:39:08,0.04,4.65,0.00,21.27,24.40,28.21,14.53,52.17,1010.81,2044.03,2101.95,2124.77,2316.97,599.66,595.75,47.26,0000 0000 0000 0000 000000
2016-01-04 06:44:10,0.08,4.66,0.00,21.30,24.40,28.21,14.63,52.23,1011.19,2044.01,2101.08,2124.05,2316.20,599.90,596.18,47.31,0000 0000 0000 0000 000000
2016-01-04 06:49:11,0.04,4.66,0.00,21.29,24.41,28.27,14.53,52.28,1011.25,2044.00,2100.39,2123.94,2315.87,599.85,596.22,47.36,0000 0000 0000 0000 000000
2016-01-04 06:54:13,0.08,4.66,0.00,21.30,24.42,28.20,14.66,52.32,1011.31,2044.00,2099.61,2123.14,2315.07,600.36,596.61,47.41,0000 0000 0000 0000 000000
2016-01-04 06:59:14,0.05,4.66,0.00,21.32,24.42,28.24,14.63,52.22,1011.52,2044.00,2098.68,2122.97,2314.59,600.06,596.54,47.46,0000 0000 0000 0000 000000
2016-01-04 07:04:15,0.08,4.67,0.00,21.34,24.44,28.27,14.57,52.17,1011.73,2044.00,2097.71,2122.28,2313.97,599.95,596.38,47.51,0000 0000 0000 0000 000000
2016-01-04 07:09:17,0.07,4.67,0.00,21.35,24.45,28.29,14.60,52.19,1011.73,2043.99,2096.57,2121.85,2313.14,600.15,596.72,47.56,0000 0000 0000 0000 000000
2016-01-04 07:14:18,0.11,4.68,0.00,21.37,24.45,28.28,14.57,52.13,1011.74,2043.98,2095.01,2121.04,2312.27,600.14,596.62,47.61,0000 0000 0000 0000 000000
2016-01-04 07:19:20,0.08,4.68,0.00,21.39,24.47,28.29,14.61,52.12,1011.80,2043.99,2093.94,2120.56,2311.73,599.61,596.03,47.66,0000 0000 0000 0000 000000
2016-01-04 07:24:21,0.06,4.69,0.00,21.39,24.47,28.29,14.59,52.20,1012.08,2043.98,2092.95,2120.00,2311.02,599.81,596.43,47.71,0000 0000 0000 0000 000000
2016-01-04 07:29:22,0.07,4.69,0.00,21.39,24.47,28.33,14.68,52.19,1012.22,2043.95,2092.03,2119.72,2310.32,600.08,596.70,47.76,0000 0000 0000 0000 000000
2016-01-04 07:34:23,0.05,4.69,0.00,21.41,24.50,28.34,14.61,52.17,1012.22,2043.96,2091.11,2119.06,2309.99,600.14,596.85,47.81,0000 0000 0000 0000 000000
2016-01-04 07:39:25,0.05,4.69,0.00,21.39,24.50,28.37,14.54,52.14,1012.25,2043.91,2090.17,2119.00,2309.44,599.76,596.47,47.86,0000 0000 0000 0000 000000
2016-01-04 07:44:26,0.01,4.70,0.00,21.41,24.50,28.36,14.70,52.32,1012.38,2043.77,2089.36,2118.86,2309.01,600.17,596.92,47.91,0000 0000 0000 0000 000000
2016-01-04 07:49:27,0.07,4.70,0.00,21.42,24.52,28.34,14.63,52.22,1012.56,2043.74,2088.66,2118.27,2308.94,599.95,596.78,47.96,0000 0000 0000 0000 000000
2016-01-04 07:54:29,0.01,4.70,0.00,21.44,24.52,28.37,14.65,52.15,1012.70,2043.41,2087.73,2118.01,2308.17,599.85,596.66,48.01,0000 0000 0000 0000 000000
2016-01-04 07:59:30,0.07,4.70,0.00,21.44,24.53,28.36,14.69,52.17,1012.70,2043.10,2086.46,2117.66,2307.55,600.05,596.90,48.06,0000 0000 0000 0000 000000
2016-01-04 08:04:31,0.05,4.71,0.00,21.44,24.54,28.33,14.61,52.19,1012.71,2043.07,2085.39,2117.06,2307.01,599.88,596.76,48.12,0000 0000 0000 0000 000000
2016-01-04 08:09:32,0.04,4.71,0.00,21.46,24.55,28.38,14.61,52.17,1012.71,2043.05,2084.37,2116.94,2306.74,600.30,597.14,48.17,0000 0000 0000 0000 000000
2016-01-04 08:14:34,0.77,4.73,0.00,21.48,24.55,28.41,14.62,52.23,1012.71,2043.01,2076.98,2112.64,2301.82,599.89,596.89,48.22,0000 0000 0000 0000 000000
2016-01-04 08:19:35,0.09,4.75,0.00,21.48,24.55,28.42,14.60,52.15,1012.71,2043.03,2073.59,2110.97,2299.65,600.17,597.05,48.27,0000 0000 0000 0000 000000
2016-01-04 08:24:37,0.08,4.76,0.00,21.49,24.57,28.41,14.63,52.15,1012.93,2043.01,2072.64,2110.29,2299.02,600.11,596.96,48.32,0000 0000 0000 0000 000000
2016-01-04 08:29:38,0.07,4.76,0.00,21.51,24.57,28.40,14.60,52.28,1013.19,2043.00,2071.39,2109.96,2298.45,600.05,597.11,48.37,0000 0000 0000 0000 000000
2016-01-04 08:34:39,0.08,4.76,0.00,21.51,24.57,28.40,14.63,52.23,1013.20,2043.00,2069.99,2109.34,2297.93,600.03,596.93,48.42,0000 0000 0000 0000 000000
2016-01-04 08:39:40,0.07,4.77,0.00,21.52,24.59,28.39,14.53,52.26,1013.20,2043.00,2068.90,2109.01,2297.13,600.08,597.09,48.47,0000 0000 0000 0000 000000
2016-01-04 08:44:42,0.04,4.77,0.00,21.51,24.60,28.46,14.57,52.23,1013.20,2043.00,2067.85,2108.97,2296.91,599.98,597.05,48.52,0000 0000 0000 0000 000000
2016-01-04 08:49:43,0.11,4.78,0.00,21.52,24.60,28.45,14.56,52.19,1013.21,2043.00,2066.72,2108.27,2296.10,599.90,597.04,48.57,0000 0000 0000 0000 000000
2016-01-04 08:54:44,0.12,4.78,0.00,21.54,24.62,28.45,14.63,52.33,1013.56,2043.00,2065.12,2107.64,2295.36,600.02,597.13,48.62,0000 0000 0000 0000 000000
2016-01-04 08:59:46,0.14,4.79,0.00,21.56,24.62,28.48,14.64,52.34,1013.69,2043.00,2063.04,2106.70,2294.00,600.06,597.30,48.67,0000 0000 0000 0000 000000
2016-01-04 09:04:47,0.14,4.80,0.00,21.57,24.63,28.48,14.59,52.28,1013.69,2042.99,2061.02,2105.73,2292.90,599.99,597.20,48.72,0000 0000 0000 0000 000000
2016-01-04 09:09:48,0.13,4.80,0.00,21.56,24.65,28.49,14.52,52.21,1013.73,2042.98,2059.22,2104.87,2291.81,600.02,597.22,48.77,0000 0000 0000 0000 000000
2016-01-04 09:14:50,0.14,4.81,0.00,21.57,24.65,28.49,14.57,52.24,1013.78,2042.98,2057.11,2103.91,2290.65,600.04,597.33,48.82,0000 0000 0000 0000 000000
2016-01-04 09:19:51,0.13,4.82,0.00,21.56,24.66,28.53,14.61,52.24,1013.92,2042.97,2055.38,2103.05,2289.63,600.11,597.47,48.87,0000 0000 0000 0000 000000
2016-01-04 09:24:52,0.05,4.82,0.00,21.55,24.67,28.54,14.60,52.24,1013.80,2042.98,2054.33,2102.97,2289.03,599.75,597.05,48.93,0000 0000 0000 0000 000000
2016-01-04 09:29:53,0.06,4.82,0.00,21.54,24.67,28.51,14.64,52.43,1013.88,2042.96,2053.39,2102.51,2288.92,600.19,597.64,48.98,0000 0000 0000 0000 000000
2016-01-04 09:34:54,0.06,4.83,0.00,21.54,24.69,28.53,14.60,52.46,1013.82,2042.95,2052.48,2102.06,2288.19,600.09,597.47,49.03,0000 0000 0000 0000 000000
2016-01-04 09:39:56,0.03,4.83,0.00,21.55,24.70,28.55,14.63,52.42,1013.85,2042.94,2051.46,2102.02,2288.00,599.90,597.32,49.08,0000 0000 0000 0000 000000
2016-01-04 09:44:57,0.03,4.83,0.00,21.56,24.70,28.56,14.55,52.28,1014.03,2042.82,2050.53,2101.99,2287.67,599.84,597.23,49.13,0000 0000 0000 0000 000000
2016-01-04 09:49:58,0.04,4.83,0.00,21.54,24.71,28.53,14.64,52.39,1014.00,2042.62,2049.61,2101.89,2287.04,600.04,597.48,49.18,0000 0000 0000 0000 000000
2016-01-04 09:55:00,0.02,4.83,0.00,21.54,24.72,28.55,14.66,52.40,1013.97,2042.24,2048.71,2101.20,2286.83,600.21,597.63,49.23,0000 0000 0000 0000 000000
2016-01-04 10:00:01,0.05,4.84,0.00,21.55,24.72,28.53,14.59,52.48,1013.93,2042.12,2047.66,2101.00,2286.09,600.00,597.31,49.28,0000 0000 0000 0000 000000
2016-01-04 10:05:02,0.01,4.84,0.00,21.55,24.72,28.54,14.59,52.55,1013.99,2042.12,2046.96,2100.99,2285.98,599.91,597.46,49.33,0000 0000 0000 0000 000000
2016-01-04 10:10:04,0.08,4.84,0.00,21.54,24.74,28.59,14.63,52.48,1014.17,2042.08,2046.12,2100.75,2285.32,599.90,597.53,49.38,0000 0000 0000 0000 000000
2016-01-04 10:15:05,0.06,4.84,0.00,21.54,24.75,28.58,14.61,52.50,1014.17,2042.06,2045.20,2100.08,2285.00,599.97,597.55,49.43,0000 0000 0000 0000 000000
2016-01-04 10:20:06,0.05,4.85,0.00,21.54,24.75,28.60,14.63,52.49,1014.23,2042.04,2044.37,2100.00,2284.60,600.22,597.81,49.48,0000 0000 0000 0000 000000
2016-01-04 10:25:07,0.03,4.85,0.00,21.55,24.75,28.63,14.58,52.46,1014.40,2042.02,2043.65,2099.98,2284.03,599.80,597.58,49.53,0000 0000 0000 0000 000000
2016-01-04 10:30:09,0.03,4.85,0.00,21.56,24.77,28.63,14.67,52.45,1014.65,2042.03,2042.96,2099.70,2283.99,600.08,597.84,49.58,0000 0000 0000 0000 000000
2016-01-04 10:35:10,0.08,4.85,0.00,21.58,24.77,28.63,14.59,52.40,1014.66,2042.02,2042.10,2099.06,2283.41,599.71,597.44,49.63,0000 0000 0000 0000 000000
2016-01-04 10:40:12,0.03,4.86,0.00,21.59,24.78,28.61,14.66,52.42,1014.66,2042.00,2041.42,2099.00,2283.00,600.18,597.92,49.68,0000 0000 0000 0000 000000
2016-01-04 10:45:13,0.01,4.86,0.00,21.59,24.80,28.67,14.58,52.38,1014.66,2042.00,2040.92,2098.94,2282.92,599.89,597.71,49.73,0000 0000 0000 0000 000000
2016-01-04 10:50:14,0.09,4.86,0.00,21.58,24.80,28.64,14.60,52.48,1014.66,2042.00,2040.09,2098.27,2282.16,600.05,597.90,49.78,0000 0000 0000 0000 000000
2016-01-04 10:55:16,0.02,4.86,0.00,21.57,24.82,28.65,14.63,52.37,1014.66,2042.00,2039.62,2098.01,2282.00,599.97,597.80,49.83,0000 0000 0000 0000 000000
2016-01-04 11:00:17,0.01,4.86,0.00,21.60,24.82,28.66,14.62,52.40,1014.66,2042.00,2039.02,2098.00,2281.85,600.17,598.00,49.89,0000 0000 0000 0000 000000
2016-01-04 11:05:18,0.05,4.87,0.00,21.60,24.84,28.68,14.63,52.50,1014.66,2042.00,2038.32,2097.94,2281.13,600.01,597.76,49.94,0000 0000 0000 0000 000000
2016-01-04 11:10:20,0.04,4.87,0.00,21.60,24.85,28.70,14.66,52.72,1014.66,2042.00,2037.97,2097.31,2281.00,600.25,597.95,49.99,0000 0000 0000 0000 000000
2016-01-04 11:15:21,0.05,4.87,0.00,21.59,24.85,28.69,14.65,52.58,1014.66,2041.99,2037.19,2097.01,2280.67,600.17,597.84,50.04,0000 0000 0000 0000 000000
2016-01-04 11:20:22,0.03,4.87,0.00,21.62,24.87,28.70,14.63,52.47,1014.66,2041.97,2036.66,2096.95,2280.03,600.31,597.98,50.09,0000 0000 0000 0000 000000
2016-01-04 11:25:24,0.05,4.88,0.00,21.60,24.87,28.70,14.71,52.62,1014.69,2041.97,2036.01,2096.29,2279.98,600.19,598.06,50.14,0000 0000 0000 0000 000000
2016-01-04 11:30:25,0.05,4.88,0.00,21.62,24.87,28.73,14.51,52.62,1015.03,2041.96,2035.37,2096.01,2279.29,599.75,597.63,50.19,0000 0000 0000 0000 000000
2016-01-04 11:35:26,0.00,4.88,0.00,21.62,24.87,28.71,14.66,52.53,1015.06,2041.91,2034.98,2095.98,2279.00,600.01,597.83,50.24,0000 0000 0000 0000 000000
2016-01-04 11:40:27,0.07,4.88,0.00,21.63,24.89,28.69,14.68,52.59,1015.00,2041.93,2034.25,2095.63,2278.86,600.04,597.89,50.29,0000 0000 0000 0000 000000
2016-01-04 11:45:29,0.03,4.89,0.00,21.62,24.90,28.68,14.65,52.71,1014.84,2041.81,2033.81,2095.03,2278.09,600.05,597.82,50.34,0000 0000 0000 0000 000000
2016-01-04 11:50:30,-0.00,4.89,0.00,21.62,24.90,28.73,14.74,52.58,1014.90,2041.57,2033.03,2094.99,2277.99,600.27,598.03,50.39,0000 0000 0000 0000 000000
2016-01-04 11:55:31,0.08,4.89,0.00,21.62,24.90,28.76,14.57,52.55,1014.92,2041.47,2032.26,2094.42,2277.34,599.90,597.70,50.44,0000 0000 0000 0000 000000
2016-01-04 12:00:32,0.00,4.89,0.00,21.63,24.92,28.75,14.63,52.46,1015.00,2041.42,2031.90,2094.01,2277.00,599.97,597.80,50.49,0000 0000 0000 0000 000000
2016-01-04 12:05:33,0.03,4.89,0.00,21.65,24.92,28.73,14.59,52.47,1014.83,2041.26,2031.09,2093.98,2276.87,600.13,597.86,50.54,0000 0000 0000 0000 000000
2016-01-04 12:10:35,0.10,4.90,0.00,21.64,24.92,28.72,14.67,52.62,1014.67,2041.24,2030.31,2093.29,2276.09,600.42,598.05,50.59,0000 0000 0000 0000 000000
2016-01-04 12:15:36,0.01,4.90,0.00,21.64,24.93,28.77,14.52,52.40,1014.69,2041.22,2029.91,2093.00,2275.99,599.63,597.40,50.64,0000 0000 0000 0000 000000
2016-01-04 12:20:37,0.05,4.90,0.00,21.66,24.95,28.74,14.65,52.50,1014.68,2041.24,2029.10,2092.95,2275.42,599.90,597.50,50.69,0000 0000 0000 0000 000000
2016-01-04 12:25:38,0.06,4.90,0.00,21.67,24.95,28.77,14.64,52.56,1014.69,2041.10,2028.48,2092.21,2275.00,600.12,597.79,50.75,0000 0000 0000 0000 000000
2016-01-04 12:30:39,0.02,4.90,0.00,21.67,24.95,28.80,14.62,52.49,1014.67,2041.05,2027.92,2092.00,2274.68,599.93,597.62,50.80,0000 0000 0000 0000 000000
2016-01-04 12:35:41,0.04,4.91,0.00,21.67,24.97,28.77,14.62,52.51,1014.69,2041.06,2027.12,2091.99,2274.06,599.83,597.47,50.85,0000 0000 0000 0000 000000
2016-01-04 12:40:42,0.06,4.91,0.00,21.68,24.97,28.74,14.56,52.54,1014.91,2041.05,2026.61,2091.41,2273.99,599.95,597.67,50.90,0000 0000 0000 0000 000000
2016-01-04 12:45:44,0.04,4.91,0.00,21.67,24.97,28.80,14.66,52.39,1014.87,2041.03,2026.01,2091.01,2273.33,600.22,597.90,50.95,0000 0000 0000 0000 000000
2016-01-04 12:50:45,0.03,4.91,0.00,21.67,24.97,28.78,14.51,52.36,1014.66,2041.00,2025.42,2090.98,2273.00,599.87,597.49,51.00,0000 0000 0000 0000 000000
2016-01-04 12:55:46,0.04,4.91,0.00,21.67,24.98,28.82,14.61,52.48,1014.44,2041.00,2024.95,2090.59,2272.86,600.00,597.35,51.05,0000 0000 0000 0000 000000